Snowfall_Accumulation
1.5 1.7 2.0 1.7 1.7 2.0 2.4 3.7 6.0 4.9 0.9 0.1 0.0 0.0 0.0 0.0 0.0 0.1 0.1 0.1 0.3 0.5 0.6 0.6 0.5 0.3 0.3 0.2 0.3 0.2 0.2 0.0 0.0 0.0 0.0 0.0 0.0 0.0
1.8 2.1 2.2 2.0 1.9 2.0 2.3 2.8 4.0 5.8 3.8 0.3 0.1 0.0 0.0 0.1 0.0 0.1 0.3 0.1 0.2 0.3 0.4 0.5 0.5 0.4 0.3 0.3 0.2 0.3 0.2 0.1 0.0 0.0 0.0 0.0 0.0 0.0
1.7 2.3 2.6 2.7 2.9 2.4 2.6 2.9 3.1 4.2 5.1 0.8 0.2 0.0 0.1 0.4 0.0 0.0 0.2 0.0 0.0 0.1 0.2 0.3 0.4 0.4 0.4 0.4 0.2 0.2 0.2 0.1 0.1 0.0 0.0 0.0 0.0 0.0
2.0 2.2 2.5 2.6 3.1 3.0 3.0 3.2 2.8 2.8 4.3 2.9 0.6 0.3 0.3 0.4 0.1 0.1 0.1 0.0 0.0 0.0 0.1 0.3 0.4 0.5 0.5 0.4 0.4 0.3 0.4 0.2 0.1 0.1 0.0 0.0 0.0 0.0
3.1 3.6 3.3 3.3 3.3 3.1 3.2 3.1 2.7 2.1 2.7 3.3 1.8 0.7 0.4 0.4 0.3 0.2 0.3 0.1 0.0 0.0 0.1 0.2 0.3 0.3 0.4 0.5 0.5 0.6 0.4 0.4 0.3 0.2 0.1 0.1 0.1 0.0
6.2 5.2 5.4 5.7 4.6 3.9 3.9 3.4 3.1 3.7 3.6 4.1 3.0 2.0 1.2 0.8 1.0 1.3 1.3 0.8 0.4 0.0 0.0 0.4 0.1 0.2 0.3 0.4 0.6 0.7 0.8 0.7 0.6 0.5 0.5 0.3 0.2 0.2
5.4 5.5 5.7 5.6 4.5 4.9 5.5 5.6 5.5 6.6 6.4 6.4 5.6 4.2 2.7 2.7 2.9 1.8 2.5 1.5 0.8 0.5 0.6 0.7 0.4 0.2 0.2 0.1 0.2 0.3 0.6 0.7 0.9 0.8 0.8 0.7 0.5 0.4
4.0 3.7 3.8 5.3 5.5 4.0 4.5 5.0 6.0 8.7 10.7 10.5 8.6 7.1 4.7 3.5 3.1 3.5 4.2 5.4 4.9 1.2 1.3 1.3 0.9 1.0 0.6 0.2 0.2 0.5 0.7 0.9 1.0 0.9 1.0 1.0 0.9 0.9
2.3 2.3 2.4 3.2 4.2 4.7 5.5 5.3 5.2 5.3 7.3 10.3 11.7 8.4 5.7 4.3 5.0 6.0 5.8 6.2 5.6 2.3 2.8 4.0 1.6 2.0 0.5 0.2 0.2 0.5 0.7 0.9 1.0 1.1 1.3 1.3 1.3 1.3
1.7 1.7 1.5 2.1 3.3 4.5 5.9 6.2 6.0 6.7 8.9 10.8 12.2 10.8 6.9 6.0 7.0 8.5 8.9 8.7 4.9 2.5 2.4 6.9 2.5 2.6 1.3 0.8 0.2 0.3 0.6 0.8 1.5 1.1 1.3 1.4 1.5 1.6
1.7 1.8 1.5 1.4 2.7 4.1 4.9 5.0 4.4 4.9 6.0 7.5 8.8 9.7 7.8 5.1 5.7 9.6 11.8 13.7 10.8 4.8 2.3 5.8 2.8 2.4 1.9 1.4 0.9 0.5 0.4 1.0 0.7 1.0 1.1 1.3 1.6 1.5
1.9 1.5 2.0 2.6 3.1 3.4 4.0 4.6 6.1 5.0 4.5 4.8 5.4 5.4 6.2 5.8 4.3 7.8 10.4 13.9 13.5 9.5 3.5 5.8 4.0 4.7 5.5 2.3 1.7 1.5 1.3 0.4 0.7 0.5 0.8 1.1 1.3 1.4
3.3 2.7 2.2 2.5 3.0 3.1 3.4 4.2 6.4 5.1 4.5 5.4 5.8 5.6 5.9 7.0 7.1 6.4 8.5 11.4 14.3 12.6 6.9 7.7 8.0 6.9 9.0 7.4 3.1 1.8 1.9 1.7 1.0 0.6 0.5 0.7 1.0 1.5
4.0 3.0 2.5 2.6 2.8 2.8 2.9 3.0 3.1 3.8 5.4 6.0 6.1 5.8 6.6 7.4 8.3 9.6 11.3 11.3 10.4 9.5 6.1 7.3 11.3 9.5 10.9 9.4 6.7 4.3 3.3 2.7 2.3 2.4 1.9 1.0 1.1 1.1
4.3 3.3 2.6 2.4 2.5 2.3 2.1 2.6 3.2 4.2 6.0 6.7 6.4 5.3 5.6 6.7 7.1 8.2 9.3 9.8 8.5 7.3 5.1 5.1 8.4 9.3 10.7 11.2 7.8 4.9 3.9 3.1 2.3 2.7 2.7 2.3 2.1 2.2
4.1 3.4 2.5 2.3 2.2 2.2 2.3 2.7 3.2 4.2 5.4 6.5 6.0 4.6 4.4 5.3 6.8 8.2 10.0 10.7 10.4 8.4 5.5 4.3 5.9 8.6 9.9 7.9 7.0 5.8 4.0 4.2 2.7 2.5 2.6 2.3 1.8 1.8
5.5 5.1 4.2 3.8 3.5 3.2 2.7 2.5 2.8 3.5 4.3 4.6 4.9 4.6 4.9 5.7 6.9 7.5 10.0 11.5 13.3 12.6 9.8 6.0 5.5 5.9 7.1 7.3 8.0 5.4 3.6 3.3 2.7 2.7 3.1 3.0 2.2 2.2
5.6 6.5 4.8 4.2 4.0 4.0 3.4 3.5 3.0 3.5 4.0 4.2 4.8 5.2 5.6 6.4 7.2 7.6 9.3 12.0 13.5 13.3 13.2 11.7 9.1 10.0 10.4 9.4 7.5 6.1 3.8 3.3 2.6 2.5 3.1 4.0 3.3 2.3
4.9 5.1 4.5 4.5 4.3 4.0 4.2 4.0 4.0 3.4 3.7 4.5 5.4 4.9 5.5 6.2 7.3 7.9 9.0 10.7 12.3 13.0 13.2 12.4 12.0 12.2 12.5 13.3 10.6 4.9 5.1 4.6 3.6 3.1 3.0 3.7 4.7 3.3
3.7 4.6 4.5 4.6 4.4 4.5 4.6 4.6 4.4 3.8 4.4 5.0 5.0 5.0 5.4 6.6 7.2 7.6 8.3 9.8 11.4 12.3 13.0 12.2 12.7 14.1 14.6 13.4 11.9 9.0 4.2 4.9 5.0 4.6 3.4 2.9 2.9 2.3
4.0 4.2 4.3 4.5 4.7 4.5 4.5 4.7 4.7 4.4 4.9 5.3 5.1 5.6 5.5 6.8 7.5 7.3 8.0 8.9 10.5 11.5 12.9 13.0 12.2 11.7 11.3 11.1 11.5 9.8 8.4 4.7 3.5 5.3 5.6 6.4 5.3 4.6
4.4 4.4 4.3 4.4 4.5 4.6 4.8 5.2 5.0 4.7 5.3 5.7 5.4 5.3 5.6 6.3 6.9 7.2 7.6 8.2 9.2 10.4 11.3 11.4 10.8 12.0 12.5 13.0 11.8 9.7 8.9 7.9 5.5 3.7 3.8 5.3 9.4 11.8
5.2 5.0 4.8 4.3 4.3 4.6 4.9 5.1 5.4 5.4 5.3 5.9 5.8 5.4 5.4 5.8 6.0 6.4 6.7 7.2 8.1 8.9 10.0 11.1 11.3 11.8 13.3 12.6 11.9 10.2 8.0 7.6 7.1 6.3 5.6 3.3 2.8 3.3